Location: Newark
(34.1333°N, 7.9667°W)
Time: 03:27:40
(UTC+00:00)

ISS - Visible Passes

Search period start: 03 February 2023 00:00
Search period end: 13 February 2023 00:00
Orbit: 412 x 419 km, 51.6° (Epoch: 02 February)

Date Brightness Start Highest point End Pass type
(mag) Time Alt. Az. Time Alt. Az. Time Alt. Az.
03 Feb -3.7 19:06:23 10° NW 19:09:43 60° NE 19:11:34 23° ESE visible
04 Feb -1.1 19:54:58 10° W 19:57:27 19° SW 19:59:06 14° SSW visible
05 Feb -2.2 19:05:41 10° WNW 19:08:49 37° SW 19:11:57 10° SSE visible
07 Feb -0.3 19:06:29 10° WSW 19:07:38 11° SW 19:08:47 10° SW visible
